Regional Weather Roundup
Issued by NWS

Home | Current Version | Previous Version | Graphics & Text | Print | Product List | Glossary Off
Versions: 1 2 3 4 5 6 7 8 9 10 11 12 13 14 15 16 17 18 19 20 21 22 23 24 25 26 27 28 29 30 31 32 33 34 35 36 37 38 39 40 41 42 43 44 45 46 47 48 49 50

000
ASUS43 KLSX 270307
RWRMO

WEATHER SUMMARY FOR MISSOURI
NATIONAL WEATHER SERVICE SPRINGFIELD MO
1000 PM CDT SUN APR 26 2015

NOTE: "FAIR" INDICATES FEW OR NO CLOUDS BELOW 12,000 FEET WITH NO
       SIGNIFICANT WEATHER AND/OR OBSTRUCTIONS TO VISIBILITY.
       CURRENT SKY AND/OR WEATHER CONDITIONS ARE NOT AVAILABLE FOR
       CHILLICOTHE AND FARMINGTON.

MOZ001>031-035>038-043-044-053-054-270400-
...NORTHERN AND WESTERN MISSOURI...

CITY           SKY/WX    TMP DP  RH WIND       PRES   REMARKS
KANSAS CTY INT PTCLDY    53  38  56 E8        30.01R
KANSAS C DTWN  MOCLDY    54  39  57 E6        30.01R
LEE`S SUMMIT   PTCLDY    53  36  52 NE8       30.01R
ST JOSEPH      CLEAR     53  36  52 NE8       30.04R
CHILLICOTHE      N/A     52  39  61 NE3       30.06R
KIRKSVILLE     CLEAR     46  36  68 NE7       30.05R

$$
MOZ066>068-077>081-088>096-101>105-270400-
...SOUTHWEST MISSOURI...

CITY           SKY/WX    TMP DP  RH WIND       PRES   REMARKS
SPRINGFIELD    MOCLDY    50  44  80 E3        29.94R
JOPLIN         CLOUDY    52  45  77 E7        29.92R

$$
MOZ032>034-039>042-045>050-055>058-069>072-270400-
...CENTRAL MISSOURI...

CITY           SKY/WX    TMP DP  RH WIND       PRES   REMARKS
COLUMBIA       CLEAR     50  38  63 NE8       30.02R
JEFFERSON CITY PTCLDY    56  33  42 NE7       30.01R
ROLLA          PTCLDY    47  36  65 NE7       29.98R
SEDALIA        MOCLDY    53  36  52 NE9       30.02R
WHITEMAN AFB   MOCLDY    51  38  62 NE8       30.00R
WARRENSBURG    MOCLDY    50  37  62 N7        30.01R
OSAGE BEACH    PTCLDY    50  36  57 NE6       29.99R

$$
MOZ051-052-059>065-270400-
...EAST CENTRAL MISSOURI...

CITY           SKY/WX    TMP DP  RH WIND       PRES   REMARKS
ST LOUIS INTL  PTCLDY    55  36  48 NE6       30.03R
SPIRIT OF STL  FAIR      53  37  54 NE7       30.01R
ST CHARLES     CLEAR     50  37  61 NE6       30.02R

$$
MOZ072>076-082>087-097>100-106>115-270400-
...SOUTH CENTRAL AND SOUTHEAST MISSOURI...

CITY           SKY/WX    TMP DP  RH WIND       PRES   REMARKS
CAPE GIRARDEAU CLEAR     51  39  63 N7        29.97R
FARMINGTON     CLEAR     50  36  57 NE7       30.02R
POPLAR BLUFF   PTCLDY    56  38  50 N9        29.94R
WEST PLAINS    PTCLDY    52  44  74 E3        29.95R

$$


USA.gov is the U.S. government's official web portal to all federal, state and local government web resources and services.